Content
SEND FEEDBACK

Daily
Averages
Monthly
Summary
United States of America

ASATDAS, GUAM


Home > North America > United States > Guam
Elevation: 186 meters     Latitude: 13 35N     Longitude: 144 56E

WEATHER
 
SELECT A DAY
Number of Records: 209,340;   Date Range: 1/1/95 - 9/20/14
 
SHARE

PRINT THIS DATA

[ ← Previous Day ]
WEATHER ALMANAC - 25 JANUARY, 2014
[ Next Day → ]
[ °F ]   °C
Weather ElementAverageHighLow
Temperature26.2 °C29.4 °C (10:54 am)25 °C (12:38 pm)
Dewpoint24.6 °C26.1 °C (1:54 pm)23.9 °C (7:54 pm)
Humidity91 %96 % (12:54 pm)74 % (10:54 am)
Barometer1004.7 hPa1006.8 hPa (8:33 am)1003 hPa (2:54 pm)
Wind Speed9 km/h24.1 km/h (10:54 am)
Wind Gust40.7 km/h (12:38 pm)
Weather ElementAverage
Visibility11.3 km
Wind DirectionS (178.3 °)

Weather ElementTotal
Precipitation99.57 mm
Cooling Degree Days8.9 (Base 18.3)
Growing Degree Days17.2 (Base 10)
Averaged from 48 records on 25 January, 2014
WEATHER CONDITIONS BREAKOUT
WIND DIRECTION BREAKOUT
WEATHER BY HOUR - 25 JANUARY, 2014
[ °F ]   °C
Local TimeTemperatureDewpointHumidityBarometerVisibilityWind DirectionWind SpeedGust SpeedPrecipitationEventsConditions
1:54 AM25.6 °C24.4 °C93 %1004.4 hPa16.1 kmSE (140°)7.4 km/hClear
2:54 AM26.1 °C24.4 °C90 %1003.7 hPa16.1 kmSSE (150°)9.3 km/hScattered Clouds
3:54 AM26.1 °C24.4 °C90 %1003.7 hPa16.1 kmSSE (160°)7.4 km/hScattered Clouds
4:54 AM25.6 °C24.4 °C93 %1003.7 hPa16.1 kmSouth (170°)5.6 km/hPartly Cloudy
5:54 AM26.1 °C25 °C94 %1004.1 hPa16.1 kmSouth (170°)5.6 km/hPartly Cloudy
6:54 AM26.1 °C24.4 °C90 %1004.7 hPa16.1 kmSE (140°)7.4 km/hScattered Clouds
7:54 AM26.1 °C24.4 °C90 %1005.4 hPa3.2 kmSSE (160°)16.7 km/h29.6 km/h0 mmRainHeavy Rain
8:01 AM26 °C25 °C94 %1006.4 hPa2.9 kmSouth (170°)11.1 km/h29.6 km/h2.03 mmRainHeavy Rain
8:04 AM26 °C24 °C89 %1006.4 hPa4.8 kmSouth (180°)13 km/h2.03 mmRainLight Rain
8:33 AM26 °C24 °C89 %1006.8 hPa16.1 kmSSE (160°)5.6 km/h2.79 mmOvercast
8:54 AM27.2 °C25 °C88 %1005.8 hPa16.1 kmSouth (170°)7.4 km/h2.79 mmOvercast
9:39 AM28 °C25 °C84 %1006.4 hPa16.1 kmSouth (170°)13 km/hMostly Cloudy
9:54 AM27.2 °C24.4 °C85 %1005.8 hPa16.1 kmSouth (170°)18.5 km/h27.8 km/hMostly Cloudy
10:06 AM29 °C25 °C79 %1006.4 hPa16.1 kmSE (140°)14.8 km/hMostly Cloudy
10:54 AM29.4 °C24.4 °C74 %1005.4 hPa16.1 kmSSE (150°)24.1 km/h31.5 km/hPartly Cloudy
11:54 AM29.4 °C25 °C77 %1004.7 hPa16.1 kmSSE (160°)13 km/h0 mmRainLight Rain
12:38 PM25 °C24 °C94 %1005.4 hPa4.8 kmSW (220°)24.1 km/h40.7 km/h0.76 mmRainRain
12:45 PM25 °C24 °C94 %1005.4 hPa4.8 kmSW (220°)14.8 km/h35.2 km/h2.54 mmRainHeavy Rain
12:54 PM25 °C24.4 °C96 %1004.4 hPa4.8 kmSSW (200°)9.3 km/h3.81 mmRainRain
1:54 PM29.4 °C26.1 °C82 %1003.4 hPa16.1 kmSSW (210°)11.1 km/h0.25 mmScattered Clouds
2:13 PM28 °C26 °C89 %1003.7 hPa16.1 kmSSE (160°)13 km/hMostly Cloudy
2:51 PM26 °C25 °C94 %1003.4 hPa9.7 kmWest (260°)22.2 km/h27.8 km/h0.25 mmRainRain
2:54 PM26.1 °C24.4 °C90 %1003 hPa6.4 kmWest (270°)18.5 km/h0.51 mmRainHeavy Rain
2:56 PM26 °C24 °C89 %1003.7 hPa4 kmWest (260°)18.5 km/h0 mmRainHeavy Rain
3:03 PM26 °C25 °C94 %1003.7 hPa6.4 kmWest (260°)9.3 km/h3.56 mmRainHeavy Rain
3:26 PM26 °C24 °C89 %1004.1 hPa4.8 kmSW (220°)7.4 km/h4.83 mmRainHeavy Rain
3:29 PM26 °C24 °C89 %1004.1 hPa1.6 kmWSW (250°)7.4 km/h7.37 mmRainHeavy Rain
3:40 PM25 °C24 °C94 %1003.7 hPa8 kmCalm19.05 mmRainHeavy Rain
3:54 PM25.6 °C24.4 °C93 %1003.4 hPa8 kmWest (270°)5.6 km/h18.8 mmRainLight Rain
4:45 PM26 °C25 °C94 %1004.4 hPa16.1 kmNorth (350°)5.6 km/h0.25 mmOvercast
4:54 PM26.1 °C25 °C94 %1003.7 hPa16.1 kmNorth (350°)7.4 km/h0.25 mmMostly Cloudy
5:01 PM26 °C25 °C94 %1004.4 hPa14.5 kmNNW (330°)5.6 km/hMostly Cloudy
5:13 PM26 °C25 °C94 %1005.1 hPa8 kmCalm0 mmRainLight Rain
5:18 PM26 °C25 °C94 %1005.1 hPa4 kmWSW (250°)7.4 km/h0.25 mmRainHeavy Rain
5:22 PM26 °C25 °C94 %1004.7 hPa0.8 kmVariable5.6 km/h1.02 mmFog-RainHeavy Rain
5:26 PM26 °C25 °C94 %1005.1 hPa1.6 kmNW (310°)11.1 km/h4.57 mmRainRain
5:30 PM26 °C25 °C94 %1005.1 hPa3.2 kmNW (320°)9.3 km/h5.08 mmRainLight Rain
5:35 PM26 °C25 °C94 %1005.1 hPa8 kmWNW (290°)9.3 km/h5.08 mmRainLight Rain
5:43 PM26 °C25 °C94 %1005.1 hPa14.5 kmNW (310°)5.6 km/h5.08 mmOvercast
5:54 PM25 °C24.4 °C96 %1004.7 hPa16.1 kmCalm5.08 mmOvercast
6:41 PM26 °C24 °C89 %1005.8 hPa12.9 kmCalm0 mmRainLight Rain
6:54 PM25.6 °C24.4 °C93 %1005.1 hPa16.1 kmWest (260°)7.4 km/h0.25 mmRainLight Rain
7:16 PM25 °C24 °C94 %1005.8 hPa16.1 kmSSW (200°)5.6 km/h0.25 mmRainLight Rain
7:54 PM25 °C23.9 °C94 %1005.4 hPa16.1 kmCalm1.02 mmRainLight Rain
8:54 PM25.6 °C23.9 °C90 %1006.1 hPa16.1 kmCalm0 mmMostly Cloudy
9:54 PM25 °C23.9 °C94 %1006.1 hPa16.1 kmCalmMostly Cloudy
10:54 PM25 °C24.4 °C96 %1005.8 hPa16.1 kmESE (120°)5.6 km/hScattered Clouds
11:54 PM25.6 °C25 °C96 %1005.1 hPa16.1 kmESE (110°)5.6 km/hScattered Clouds
Hourly data recorded from PGUM, located 0 kilometers away from Asatdas, Guam







STORIES FROM OUR PARTNERS